Flag for U.S.A. Weather past 2 weeks in Vista, California, U.S.A.

Now
62 °F

Scattered clouds.


Feels Like: 62 °F
Forecast: 51 / 59 °F
Wind: 12 mph from West

Location: McClellan-Palomar Airport

Current Time: Feb 28, 2015 at 1:30:49 PM

Latest Report: Feb 28, 2015 at 12:53 PM


Visibility: 10 mi

Pressure: 29.87 "Hg

Humidity: 58%

Dew point: 47 °F

Location of VistaLocation

Historic Weather in Vista — Graph

°F

Vista temperature yesterday

Maximum temperature yesterday: 64 °F (at 10:53 AM)
Minimum temperature yesterday: 54 °F (at 12:53 AM)
Average temperature yesterday: 60 °F

Past Weeks' High & Low Weather Summary

 TemperatureHumidityPressure
High81 °F (Feb 14, 9:53 AM)100% (Feb 16, 6:53 AM)30.22 "Hg (Feb 16, 6:53 AM)
Low47 °F (Feb 26, 5:53 AM)15% (Feb 13, 3:53 PM)29.76 "Hg (Feb 27, 3:53 PM)
Average60 °F67%29.99 "Hg
* Reported Feb 13 11:53 AM — Feb 28 11:53 AM, Vista, Weather by CustomWeather, © 2015

Note: Actual official high and low records may vary slightly from our data, if they occured in-between our weather recording intervals... More about our weather records

Advertising

Vista weather history for previous 24 hours

 ConditionsComfort  
Time TempWeatherWind HumidityBarometerVisibility
11:53 AM
Sat, Feb 28
62 °FMostly cloudy.10 mph54%29.88 "Hg10 mi
10:53 AM61 °FBroken clouds.13 mph60%29.89 "Hg10 mi
9:53 AM60 °FScattered clouds.12 mph60%29.88 "Hg10 mi
8:53 AM60 °FPartly sunny.7 mph58%29.88 "Hg10 mi
7:53 AM59 °FPartly sunny.7 mph60%29.85 "Hg10 mi
6:53 AM57 °FPartly sunny.8 mph64%29.83 "Hg10 mi
5:53 AM56 °FLight rain. Overcast.6 mph77%29.81 "Hg10 mi
4:53 AM58 °FMostly cloudy.7 mph70%29.80 "Hg10 mi
3:53 AM58 °FOvercast.7 mph70%29.78 "Hg10 mi
2:53 AM58 °FMostly cloudy.7 mph75%29.78 "Hg10 mi
1:53 AM58 °FPartly cloudy.7 mph78%29.80 "Hg10 mi
12:53 AM58 °FPassing clouds.9 mph75%29.79 "Hg10 mi
11:53 PM
Fri, Feb 27
59 °FMostly cloudy.9 mph78%29.78 "Hg10 mi
10:53 PM59 °FLight rain. Mostly cloudy.10 mph81%29.78 "Hg10 mi
9:53 PM60 °FLight rain. Mostly cloudy.7 mph72%29.79 "Hg9 mi
8:53 PM60 °FOvercast.10 mph75%29.78 "Hg10 mi
7:53 PM59 °FOvercast.8 mph78%29.77 "Hg10 mi
7:00 PM60 °FMostly cloudy.8 mph75%29.78 "Hg10 mi
5:53 PM61 °FMostly cloudy.8 mph75%29.76 "Hg10 mi
5:00 PM62 °FCloudy.9 mph70%29.77 "Hg10 mi
3:53 PM63 °FMostly cloudy.10 mph68%29.76 "Hg10 mi
2:53 PM63 °FMore clouds than sun.14 mph68%29.77 "Hg10 mi
1:53 PM64 °FScattered clouds.16 mph63%29.77 "Hg10 mi
Weather by CustomWeather, © 2015

See weather overviewHow to use our weather pages